| time (UTC) | temp F | wind direction | speed MPH | gust MPH | rain 1hr in | rain 24hr in | rain mn in | humidity % | barometer mb |
| 20260505225751 | 83 | 142 | 2.0 | 4.0 | 0.00 | 0.00 | 0.00 | 68 | 1004.1 |
| 20260505225249 | 83 | 134 | 4.0 | 4.0 | 0.00 | 0.00 | 0.00 | 68 | 1004.2 |
| 20260505224743 | 83 | 160 | 1.0 | 3.0 | 0.00 | 0.00 | 0.00 | 68 | 1004.0 |
| 20260505224241 | 83 | 213 | 2.0 | 4.0 | 0.00 | 0.00 | 0.00 | 68 | 1004.1 |
| 20260505223739 | 83 | 149 | 2.0 | 3.0 | 0.00 | 0.00 | 0.00 | 68 | 1004.1 |
| 20260505223235 | 83 | 141 | 3.0 | 7.0 | 0.00 | 0.00 | 0.00 | 68 | 1004.3 |
| 20260505222731 | 83 | 134 | 0.0 | 6.0 | 0.00 | 0.00 | 0.00 | 66 | 1004.2 |
| 20260505222227 | 84 | 199 | 2.0 | 6.0 | 0.00 | 0.00 | 0.00 | 67 | 1004.2 |
| 20260505221725 | 84 | 151 | 2.0 | 6.0 | 0.00 | 0.00 | 0.00 | 68 | 1004.1 |
| 20260505221221 | 84 | 185 | 3.0 | 3.0 | 0.00 | 0.00 | 0.00 | 67 | 1004.0 |
| 20260505220718 | 84 | 180 | 1.0 | 6.0 | 0.00 | 0.00 | 0.00 | 67 | 1004.0 |
| 20260505220216 | 84 | 172 | 1.0 | 7.0 | 0.00 | 0.00 | 0.00 | 67 | 1004.0 |
| 20260505215714 | 84 | 149 | 3.0 | 5.0 | 0.00 | 0.00 | 0.00 | 66 | 1004.3 |
| 20260505215211 | 85 | 151 | 4.0 | 6.0 | 0.00 | 0.00 | 0.00 | 66 | 1004.4 |
| 20260505214709 | 85 | 140 | 2.0 | 7.0 | 0.00 | 0.00 | 0.00 | 66 | 1004.4 |
| 20260505214206 | 85 | 164 | 2.0 | 5.0 | 0.00 | 0.00 | 0.00 | 67 | 1004.5 |
| 20260505213703 | 85 | 140 | 3.0 | 5.0 | 0.00 | 0.00 | 0.00 | 66 | 1004.7 |
| 20260505213201 | 85 | 126 | 2.0 | 4.0 | 0.00 | 0.00 | 0.00 | 67 | 1004.3 |
| 20260505212656 | 85 | 125 | 3.0 | 5.0 | 0.00 | 0.00 | 0.00 | 65 | 1004.6 |
| 20260505212154 | 86 | 145 | 6.0 | 6.0 | 0.00 | 0.00 | 0.00 | 66 | 1004.8 |
| 20260505211650 | 85 | 170 | 2.0 | 4.0 | 0.00 | 0.00 | 0.00 | 65 | 1004.7 |
| 20260505211148 | 85 | 141 | 3.0 | 5.0 | 0.00 | 0.00 | 0.00 | 66 | 1004.8 |
| 20260505210644 | 85 | 208 | 2.0 | 11.0 | 0.00 | 0.00 | 0.00 | 68 | 1005.0 |
| 20260505210141 | 85 | 152 | 2.0 | 9.0 | 0.00 | 0.00 | 0.00 | 66 | 1005.1 |
| 20260505205638 | 84 | 139 | 3.0 | 6.0 | 0.00 | 0.00 | 0.00 | 68 | 1005.0 |
| 20260505205137 | 84 | 151 | 2.0 | 7.0 | 0.00 | 0.00 | 0.00 | 68 | 1005.1 |
| 20260505204633 | 84 | 150 | 2.0 | 5.0 | 0.00 | 0.00 | 0.00 | 68 | 1005.1 |
| 20260505204131 | 84 | 130 | 0.0 | 4.0 | 0.00 | 0.00 | 0.00 | 68 | 1004.8 |
| 20260505203627 | 84 | 141 | 4.0 | 5.0 | 0.00 | 0.00 | 0.00 | 67 | 1005.1 |
| 20260505203125 | 84 | 172 | 3.0 | 5.0 | 0.00 | 0.00 | 0.00 | 68 | 1005.1 |
| 20260505202620 | 84 | 162 | 4.0 | 6.0 | 0.00 | 0.00 | 0.00 | 67 | 1005.2 |
| 20260505202116 | 84 | 97 | 2.0 | 4.0 | 0.00 | 0.00 | 0.00 | 67 | 1005.4 |
| 20260505201613 | 84 | 167 | 3.0 | 7.0 | 0.00 | 0.00 | 0.00 | 67 | 1005.6 |
| 20260505201111 | 83 | 187 | 2.0 | 5.0 | 0.00 | 0.00 | 0.00 | 68 | 1005.5 |
| 20260505200609 | 83 | 169 | 3.0 | 5.0 | 0.00 | 0.00 | 0.00 | 70 | 1005.6 |
| 20260505200106 | 84 | 175 | 4.0 | 5.0 | 0.00 | 0.00 | 0.00 | 67 | 1005.5 |
| 20260505195601 | 84 | 205 | 5.0 | 9.0 | 0.00 | 0.00 | 0.00 | 67 | 1005.4 |
| 20260505195059 | 84 | 185 | 2.0 | 5.0 | 0.00 | 0.00 | 0.00 | 67 | 1005.4 |
| 20260505194556 | 84 | 145 | 6.0 | 7.0 | 0.00 | 0.00 | 0.00 | 67 | 1005.5 |
| 20260505194052 | 83 | 197 | 4.0 | 5.0 | 0.00 | 0.00 | 0.00 | 68 | 1005.7 |
| 20260505193549 | 83 | 172 | 2.0 | 6.0 | 0.00 | 0.00 | 0.00 | 67 | 1005.8 |
| 20260505193046 | 83 | 139 | 4.0 | 6.0 | 0.00 | 0.00 | 0.00 | 68 | 1006.0 |
| 20260505192545 | 83 | 150 | 5.0 | 5.0 | 0.00 | 0.00 | 0.00 | 69 | 1005.9 |
| 20260505192042 | 83 | 208 | 2.0 | 6.0 | 0.00 | 0.00 | 0.00 | 69 | 1005.8 |
| 20260505191540 | 83 | 176 | 2.0 | 4.0 | 0.00 | 0.00 | 0.00 | 69 | 1005.8 |
| 20260505191038 | 82 | 211 | 4.0 | 5.0 | 0.00 | 0.00 | 0.00 | 69 | 1005.9 |
| 20260505190532 | 82 | 205 | 2.0 | 8.0 | 0.00 | 0.00 | 0.00 | 70 | 1006.2 |
| 20260505190029 | 82 | 140 | 4.0 | 7.0 | 0.00 | 0.00 | 0.00 | 68 | 1006.2 |
| 20260505185525 | 82 | 136 | 2.0 | 5.0 | 0.00 | 0.00 | 0.00 | 71 | 1006.0 |
| 20260505185022 | 82 | 148 | 5.0 | 7.0 | 0.00 | 0.00 | 0.00 | 68 | 1006.2 |
| 20260505184519 | 81 | 125 | 2.0 | 7.0 | 0.00 | 0.00 | 0.00 | 72 | 1006.4 |
| 20260505184015 | 81 | 134 | 2.0 | 6.0 | 0.00 | 0.00 | 0.00 | 71 | 1006.5 |
| 20260505183512 | 81 | 157 | 4.0 | 8.0 | 0.00 | 0.00 | 0.00 | 70 | 1006.8 |
| 20260505183009 | 80 | 197 | 1.0 | 4.0 | 0.00 | 0.00 | 0.00 | 72 | 1006.9 |
| 20260505182506 | 80 | 204 | 4.0 | 8.0 | 0.00 | 0.00 | 0.00 | 70 | 1007.2 |
| 20260505182002 | 80 | 164 | 3.0 | 11.0 | 0.00 | 0.00 | 0.00 | 71 | 1006.9 |
| 20260505181459 | 79 | 136 | 4.0 | 5.0 | 0.00 | 0.00 | 0.00 | 75 | 1006.9 |
| 20260505180956 | 79 | 140 | 3.0 | 5.0 | 0.00 | 0.00 | 0.00 | 74 | 1007.1 |
| 20260505180452 | 78 | 136 | 4.0 | 5.0 | 0.00 | 0.00 | 0.00 | 75 | 1007.0 |
| 20260505175949 | 78 | 137 | 4.0 | 7.0 | 0.00 | 0.00 | 0.00 | 76 | 1007.0 |
| 20260505175445 | 77 | 149 | 5.0 | 10.0 | 0.00 | 0.00 | 0.00 | 77 | 1007.3 |
| 20260505174942 | 77 | 219 | 2.0 | 3.0 | 0.00 | 0.00 | 0.00 | 78 | 1007.4 |
| 20260505174439 | 77 | 196 | 0.0 | 4.0 | 0.00 | 0.00 | 0.00 | 77 | 1007.5 |
| 20260505173935 | 77 | 188 | 1.0 | 5.0 | 0.00 | 0.00 | 0.00 | 77 | 1007.3 |
| 20260505173432 | 77 | 213 | 3.0 | 7.0 | 0.00 | 0.00 | 0.00 | 77 | 1007.4 |
| 20260505172929 | 77 | 208 | 2.0 | 7.0 | 0.00 | 0.00 | 0.00 | 78 | 1007.4 |
| 20260505172428 | 77 | 127 | 3.0 | 5.0 | 0.00 | 0.00 | 0.00 | 79 | 1007.3 |
| 20260505171926 | 76 | 216 | 5.0 | 7.0 | 0.00 | 0.00 | 0.00 | 80 | 1007.4 |
| 20260505171424 | 76 | 141 | 3.0 | 4.0 | 0.00 | 0.00 | 0.00 | 80 | 1007.3 |
| 20260505170920 | 75 | 227 | 2.0 | 4.0 | 0.00 | 0.00 | 0.00 | 81 | 1007.2 |
| 20260505170417 | 75 | 163 | 3.0 | 6.0 | 0.00 | 0.00 | 0.00 | 80 | 1007.6 |
| 20260505165912 | 75 | 162 | 3.0 | 5.0 | 0.00 | 0.00 | 0.00 | 81 | 1007.5 |
| 20260505165409 | 75 | 171 | 2.0 | 4.0 | 0.00 | 0.00 | 0.00 | 82 | 1007.4 |
| 20260505164904 | 75 | 190 | 3.0 | 5.0 | 0.00 | 0.00 | 0.00 | 82 | 1007.4 |
| 20260505164401 | 74 | 155 | 3.0 | 9.0 | 0.00 | 0.00 | 0.00 | 82 | 1007.6 |
| 20260505163859 | 75 | 199 | 4.0 | 6.0 | 0.00 | 0.00 | 0.00 | 82 | 1007.5 |
| 20260505163358 | 74 | 152 | 2.0 | 5.0 | 0.00 | 0.00 | 0.00 | 83 | 1007.5 |
| 20260505162856 | 74 | 189 | 4.0 | 8.0 | 0.00 | 0.00 | 0.00 | 83 | 1007.5 |
| 20260505162351 | 74 | 180 | 3.0 | 4.0 | 0.00 | 0.00 | 0.00 | 83 | 1007.7 |
| 20260505161849 | 74 | 174 | 3.0 | 5.0 | 0.00 | 0.00 | 0.00 | 84 | 1007.5 |
| 20260505161346 | 74 | 146 | 3.0 | 4.0 | 0.00 | 0.00 | 0.00 | 84 | 1007.6 |
| 20260505160843 | 73 | 153 | 3.0 | 6.0 | 0.00 | 0.00 | 0.00 | 84 | 1007.6 |
| 20260505160341 | 73 | 187 | 3.0 | 6.0 | 0.00 | 0.00 | 0.00 | 85 | 1007.3 |
| 20260505153319 | 73 | 135 | 5.0 | 7.0 | 0.00 | 0.00 | 0.00 | 85 | 1007.5 |
| 20260505152816 | 73 | 181 | 3.0 | 5.0 | 0.00 | 0.00 | 0.00 | 86 | 1007.4 |
| 20260505152314 | 73 | 168 | 2.0 | 5.0 | 0.00 | 0.00 | 0.00 | 85 | 1007.4 |
| 20260505151814 | 73 | 157 | 4.0 | 7.0 | 0.00 | 0.00 | 0.00 | 86 | 1007.6 |
| 20260505151311 | 73 | 189 | 3.0 | 6.0 | 0.00 | 0.00 | 0.00 | 86 | 1007.7 |
| 20260505150808 | 72 | 187 | 1.0 | 5.0 | 0.00 | 0.00 | 0.00 | 86 | 1007.5 |
| 20260505150305 | 72 | 155 | 2.0 | 3.0 | 0.00 | 0.00 | 0.00 | 87 | 1007.2 |
| 20260505140235 | 71 | 142 | 5.0 | 5.0 | 0.00 | 0.00 | 0.00 | 87 | 1007.1 |
| 20260505130159 | 71 | 121 | 3.0 | 9.0 | 0.00 | 0.00 | 0.00 | 87 | 1006.5 |
| 20260505124649 | 71 | 209 | 4.0 | 6.0 | 0.00 | 0.00 | 0.00 | 87 | 1006.3 |
| 20260505124145 | 71 | 154 | 3.0 | 6.0 | 0.00 | 0.00 | 0.00 | 87 | 1006.1 |
| 20260505123641 | 71 | 139 | 4.0 | 6.0 | 0.00 | 0.00 | 0.00 | 87 | 1006.0 |
| 20260505123138 | 70 | 142 | 2.0 | 6.0 | 0.00 | 0.00 | 0.00 | 87 | 1006.2 |
| 20260505122634 | 70 | 161 | 4.0 | 6.0 | 0.00 | 0.00 | 0.00 | 87 | 1006.0 |
| 20260505122132 | 70 | 130 | 2.0 | 5.0 | 0.00 | 0.00 | 0.00 | 87 | 1006.1 |
| 20260505121628 | 70 | 173 | 2.0 | 6.0 | 0.00 | 0.00 | 0.00 | 88 | 1005.6 |
| 20260505121125 | 70 | 132 | 4.0 | 6.0 | 0.00 | 0.00 | 0.00 | 88 | 1005.8 |
| 20260505120622 | 70 | 161 | 3.0 | 5.0 | 0.00 | 0.00 | 0.00 | 88 | 1005.7 |
| 20260505120118 | 70 | 144 | 5.0 | 6.0 | 0.00 | 0.00 | 0.00 | 88 | 1005.8 |
| 20260505115618 | 70 | 198 | 2.0 | 4.0 | 0.00 | 0.00 | 0.00 | 88 | 1005.3 |
| 20260505115115 | 70 | 187 | 2.0 | 4.0 | 0.00 | 0.00 | 0.00 | 88 | 1005.2 |
| 20260505114612 | 70 | 178 | 2.0 | 7.0 | 0.00 | 0.00 | 0.00 | 88 | 1005.4 |
| 20260505114109 | 70 | 152 | 2.0 | 10.0 | 0.00 | 0.00 | 0.00 | 87 | 1005.6 |
| 20260505113605 | 70 | 148 | 2.0 | 6.0 | 0.00 | 0.00 | 0.00 | 87 | 1005.4 |
| 20260505113102 | 70 | 143 | 2.0 | 9.0 | 0.00 | 0.00 | 0.00 | 87 | 1005.6 |
| 20260505112558 | 70 | 130 | 4.0 | 5.0 | 0.00 | 0.00 | 0.00 | 87 | 1005.7 |
| 20260505112056 | 70 | 158 | 5.0 | 8.0 | 0.00 | 0.00 | 0.00 | 87 | 1005.6 |
| 20260505111550 | 71 | 150 | 4.0 | 6.0 | 0.00 | 0.00 | 0.00 | 87 | 1005.4 |
| 20260505111046 | 71 | 141 | 6.0 | 8.0 | 0.00 | 0.00 | 0.00 | 87 | 1005.6 |
| 20260505110543 | 71 | 147 | 2.0 | 6.0 | 0.00 | 0.00 | 0.00 | 86 | 1005.5 |
| 20260505102015 | 71 | 151 | 2.0 | 5.0 | 0.00 | 0.00 | 0.00 | 85 | 1005.8 |
| 20260505101514 | 71 | 155 | 2.0 | 5.0 | 0.00 | 0.00 | 0.00 | 85 | 1005.9 |
| 20260505101010 | 71 | 149 | 5.0 | 8.0 | 0.00 | 0.00 | 0.00 | 85 | 1005.7 |
| 20260505100507 | 71 | 182 | 2.0 | 5.0 | 0.00 | 0.00 | 0.00 | 85 | 1005.9 |
| 20260505100003 | 71 | 161 | 4.0 | 5.0 | 0.00 | 0.00 | 0.00 | 85 | 1006.2 |
| 20260505095459 | 71 | 185 | 3.0 | 4.0 | 0.00 | 0.00 | 0.00 | 85 | 1006.2 |
| 20260505094956 | 71 | 103 | 3.0 | 5.0 | 0.00 | 0.00 | 0.00 | 85 | 1006.0 |
| 20260505094453 | 71 | 130 | 4.0 | 6.0 | 0.00 | 0.00 | 0.00 | 85 | 1005.9 |
| 20260505093949 | 71 | 165 | 4.0 | 6.0 | 0.00 | 0.00 | 0.00 | 85 | 1005.9 |
| 20260505093446 | 71 | 160 | 3.0 | 10.0 | 0.00 | 0.00 | 0.00 | 86 | 1006.2 |
| 20260505092943 | 71 | 159 | 4.0 | 6.0 | 0.00 | 0.00 | 0.00 | 86 | 1005.9 |
| 20260505092441 | 71 | 195 | 4.0 | 6.0 | 0.00 | 0.00 | 0.00 | 86 | 1005.8 |
| 20260505091938 | 71 | 164 | 4.0 | 5.0 | 0.00 | 0.00 | 0.00 | 86 | 1006.0 |
| 20260505091435 | 71 | 134 | 3.0 | 6.0 | 0.00 | 0.00 | 0.00 | 86 | 1006.3 |
| 20260505090933 | 71 | 123 | 4.0 | 5.0 | 0.00 | 0.00 | 0.00 | 86 | 1006.4 |
| 20260505090431 | 71 | 160 | 4.0 | 8.0 | 0.00 | 0.00 | 0.00 | 86 | 1006.3 |
| 20260505085928 | 71 | 143 | 5.0 | 7.0 | 0.00 | 0.00 | 0.00 | 85 | 1006.4 |
| 20260505085426 | 71 | 121 | 4.0 | 5.0 | 0.00 | 0.00 | 0.00 | 85 | 1006.2 |
| 20260505084924 | 71 | 137 | 5.0 | 6.0 | 0.00 | 0.00 | 0.00 | 85 | 1006.2 |
| 20260505084422 | 71 | 147 | 4.0 | 7.0 | 0.00 | 0.00 | 0.00 | 85 | 1006.2 |
| 20260505083920 | 71 | 144 | 4.0 | 5.0 | 0.00 | 0.00 | 0.00 | 85 | 1006.2 |
| 20260505083417 | 71 | 145 | 4.0 | 9.0 | 0.00 | 0.00 | 0.00 | 85 | 1006.3 |
| 20260505082913 | 71 | 184 | 3.0 | 5.0 | 0.00 | 0.00 | 0.00 | 85 | 1006.4 |
| 20260505082409 | 71 | 140 | 5.0 | 6.0 | 0.00 | 0.00 | 0.00 | 85 | 1006.5 |
| 20260505081906 | 71 | 175 | 4.0 | 7.0 | 0.00 | 0.00 | 0.00 | 85 | 1006.4 |
| 20260505081403 | 71 | 136 | 3.0 | 5.0 | 0.00 | 0.00 | 0.00 | 84 | 1006.9 |
| 20260505080859 | 71 | 162 | 3.0 | 6.0 | 0.00 | 0.00 | 0.00 | 84 | 1006.6 |
| 20260505080355 | 71 | 158 | 3.0 | 12.0 | 0.00 | 0.00 | 0.00 | 84 | 1006.9 |
| 20260505075851 | 71 | 131 | 2.0 | 8.0 | 0.00 | 0.00 | 0.00 | 85 | 1006.9 |
| 20260505075348 | 71 | 159 | 4.0 | 8.0 | 0.00 | 0.00 | 0.00 | 84 | 1006.6 |
| 20260505074845 | 71 | 158 | 2.0 | 6.0 | 0.00 | 0.00 | 0.00 | 84 | 1006.5 |
| 20260505074342 | 71 | 145 | 7.0 | 8.0 | 0.00 | 0.00 | 0.00 | 84 | 1006.9 |
| 20260505073840 | 71 | 194 | 3.0 | 10.0 | 0.00 | 0.00 | 0.00 | 84 | 1006.9 |
| 20260505073338 | 71 | 147 | 4.0 | 5.0 | 0.00 | 0.00 | 0.00 | 84 | 1007.0 |
| 20260505072834 | 71 | 148 | 4.0 | 6.0 | 0.00 | 0.00 | 0.00 | 84 | 1006.9 |
| 20260505072330 | 71 | 139 | 3.0 | 6.0 | 0.00 | 0.00 | 0.00 | 84 | 1007.2 |
| 20260505071826 | 71 | 135 | 4.0 | 6.0 | 0.00 | 0.00 | 0.00 | 84 | 1007.0 |
| 20260505071323 | 71 | 183 | 4.0 | 7.0 | 0.00 | 0.00 | 0.00 | 84 | 1007.2 |
| 20260505070821 | 71 | 153 | 3.0 | 6.0 | 0.00 | 0.00 | 0.00 | 84 | 1007.3 |
| 20260505070318 | 71 | 177 | 1.0 | 3.0 | 0.00 | 0.00 | 0.00 | 84 | 1007.5 |
| 20260505065813 | 71 | 134 | 2.0 | 10.0 | 0.00 | 0.00 | 0.00 | 84 | 1007.4 |
| 20260505065310 | 71 | 185 | 3.0 | 6.0 | 0.00 | 0.00 | 0.00 | 83 | 1007.5 |
| 20260505064807 | 71 | 170 | 3.0 | 6.0 | 0.00 | 0.00 | 0.00 | 83 | 1007.7 |
| 20260505064304 | 71 | 121 | 4.0 | 9.0 | 0.00 | 0.00 | 0.00 | 83 | 1007.6 |
| 20260505063802 | 71 | 141 | 4.0 | 10.0 | 0.00 | 0.00 | 0.00 | 83 | 1007.4 |
| 20260505063258 | 71 | 143 | 3.0 | 5.0 | 0.00 | 0.00 | 0.00 | 83 | 1007.6 |
| 20260505062754 | 71 | 148 | 3.0 | 7.0 | 0.00 | 0.00 | 0.00 | 83 | 1007.6 |
| 20260505062252 | 71 | 162 | 2.0 | 4.0 | 0.00 | 0.00 | 0.00 | 83 | 1007.5 |
| 20260505061749 | 71 | 160 | 3.0 | 8.0 | 0.00 | 0.00 | 0.00 | 82 | 1007.6 |
| 20260505061247 | 72 | 156 | 2.0 | 4.0 | 0.00 | 0.00 | 0.00 | 82 | 1007.8 |
| 20260505060744 | 72 | 144 | 4.0 | 5.0 | 0.00 | 0.00 | 0.00 | 82 | 1007.8 |
| 20260505060241 | 72 | 143 | 2.0 | 6.0 | 0.00 | 0.00 | 0.00 | 82 | 1007.8 |
| 20260505055736 | 72 | 108 | 4.0 | 5.0 | 0.00 | 0.00 | 0.00 | 82 | 1007.7 |
| 20260505055232 | 72 | 126 | 0.0 | 4.0 | 0.00 | 0.00 | 0.00 | 82 | 1007.8 |
| 20260505054730 | 72 | 169 | 3.0 | 4.0 | 0.00 | 0.00 | 0.00 | 82 | 1008.0 |
| 20260505054228 | 72 | 140 | 2.0 | 4.0 | 0.00 | 0.00 | 0.00 | 82 | 1007.8 |
| 20260505053726 | 72 | 139 | 4.0 | 5.0 | 0.00 | 0.00 | 0.00 | 82 | 1007.7 |
| 20260505053222 | 72 | 130 | 2.0 | 6.0 | 0.00 | 0.00 | 0.00 | 82 | 1007.5 |
| 20260505052719 | 72 | 164 | 2.0 | 8.0 | 0.00 | 0.00 | 0.00 | 82 | 1007.7 |
| 20260505052216 | 72 | 151 | 2.0 | 4.0 | 0.00 | 0.00 | 0.00 | 82 | 1007.7 |
| 20260505051713 | 72 | 130 | 3.0 | 5.0 | 0.00 | 0.00 | 0.00 | 82 | 1007.9 |
| 20260505051211 | 72 | 158 | 2.0 | 3.0 | 0.00 | 0.00 | 0.00 | 82 | 1007.6 |
| 20260505050709 | 72 | 155 | 2.0 | 5.0 | 0.00 | 0.00 | 0.00 | 81 | 1007.6 |
| 20260505050208 | 72 | 161 | 4.0 | 7.0 | 0.00 | 0.00 | 0.00 | 81 | 1007.7 |
| 20260505041642 | 73 | 140 | 3.0 | 5.0 | 0.00 | 0.00 | 0.00 | 79 | 1007.7 |
| 20260505041140 | 73 | 109 | 0.0 | 5.0 | 0.00 | 0.00 | 0.00 | 79 | 1007.7 |
| 20260505040636 | 73 | 180 | 5.0 | 5.0 | 0.00 | 0.00 | 0.00 | 78 | 1007.8 |
| 20260505040134 | 73 | 146 | 3.0 | 9.0 | 0.00 | 0.00 | 0.00 | 78 | 1007.9 |
| 20260505035630 | 73 | 154 | 1.0 | 4.0 | 0.00 | 0.00 | 0.00 | 78 | 1007.6 |
| 20260505035126 | 74 | 144 | 5.0 | 5.0 | 0.00 | 0.00 | 0.00 | 78 | 1007.7 |
| 20260505034623 | 74 | 164 | 2.0 | 7.0 | 0.00 | 0.00 | 0.00 | 77 | 1007.6 |
| 20260505034120 | 74 | 143 | 4.0 | 5.0 | 0.00 | 0.00 | 0.00 | 77 | 1007.7 |
| 20260505033617 | 74 | 149 | 9.0 | 10.0 | 0.00 | 0.00 | 0.00 | 77 | 1007.9 |
| 20260505033115 | 74 | 167 | 4.0 | 5.0 | 0.00 | 0.00 | 0.00 | 76 | 1007.7 |
| 20260505032613 | 74 | 149 | 2.0 | 4.0 | 0.00 | 0.00 | 0.00 | 76 | 1007.4 |
| 20260505032109 | 74 | 144 | 5.0 | 6.0 | 0.00 | 0.00 | 0.00 | 76 | 1007.5 |
| 20260505031606 | 75 | 140 | 3.0 | 5.0 | 0.00 | 0.00 | 0.00 | 75 | 1007.4 |
| 20260505031102 | 75 | 134 | 2.0 | 4.0 | 0.00 | 0.00 | 0.00 | 75 | 1007.5 |
| 20260505030600 | 75 | 141 | 4.0 | 5.0 | 0.00 | 0.00 | 0.00 | 75 | 1007.4 |
| 20260505030055 | 75 | 174 | 3.0 | 4.0 | 0.00 | 0.00 | 0.00 | 74 | 1007.4 |
| 20260505025551 | 75 | 190 | 1.0 | 6.0 | 0.00 | 0.00 | 0.00 | 74 | 1007.7 |
| 20260505025051 | 75 | 122 | 2.0 | 5.0 | 0.00 | 0.00 | 0.00 | 73 | 1007.6 |
| 20260505024547 | 75 | 136 | 3.0 | 4.0 | 0.00 | 0.00 | 0.00 | 73 | 1007.6 |
| 20260505024044 | 76 | 150 | 5.0 | 5.0 | 0.00 | 0.00 | 0.00 | 72 | 1007.5 |
| 20260505023541 | 76 | 146 | 4.0 | 6.0 | 0.00 | 0.00 | 0.00 | 71 | 1007.6 |
| 20260505023039 | 76 | 156 | 3.0 | 6.0 | 0.00 | 0.00 | 0.00 | 71 | 1007.6 |
| 20260505022536 | 76 | 137 | 4.0 | 5.0 | 0.00 | 0.00 | 0.00 | 70 | 1007.4 |
| 20260505022033 | 76 | 137 | 4.0 | 6.0 | 0.00 | 0.00 | 0.00 | 69 | 1007.6 |
| 20260505021530 | 76 | 188 | 4.0 | 6.0 | 0.00 | 0.00 | 0.00 | 69 | 1007.5 |
| 20260505021027 | 76 | 145 | 5.0 | 7.0 | 0.00 | 0.00 | 0.00 | 68 | 1007.3 |
| 20260505020526 | 76 | 133 | 3.0 | 5.0 | 0.00 | 0.00 | 0.00 | 67 | 1007.1 |
| 20260505020024 | 76 | 131 | 2.0 | 4.0 | 0.00 | 0.00 | 0.00 | 67 | 1007.2 |
| 20260505015521 | 76 | 176 | 2.0 | 3.0 | 0.00 | 0.00 | 0.00 | 67 | 1007.2 |
| 20260505015018 | 76 | 142 | 2.0 | 3.0 | 0.00 | 0.00 | 0.00 | 66 | 1007.4 |
| 20260505014514 | 77 | 134 | 3.0 | 4.0 | 0.00 | 0.00 | 0.00 | 66 | 1007.2 |
| 20260505014012 | 77 | 137 | 3.0 | 4.0 | 0.00 | 0.00 | 0.00 | 65 | 1007.3 |
| 20260505013509 | 77 | 161 | 1.0 | 4.0 | 0.00 | 0.00 | 0.00 | 65 | 1007.2 |
| 20260505013006 | 77 | 123 | 3.0 | 6.0 | 0.00 | 0.00 | 0.00 | 65 | 1007.3 |
| 20260505012504 | 77 | 136 | 3.0 | 5.0 | 0.00 | 0.00 | 0.00 | 64 | 1007.3 |
| 20260505012001 | 77 | 136 | 2.0 | 4.0 | 0.00 | 0.00 | 0.00 | 64 | 1007.4 |
| 20260505011456 | 77 | 139 | 3.0 | 3.0 | 0.00 | 0.00 | 0.00 | 63 | 1007.3 |
| 20260505010954 | 77 | 147 | 3.0 | 5.0 | 0.00 | 0.00 | 0.00 | 63 | 1007.3 |
| 20260505010449 | 77 | 127 | 3.0 | 4.0 | 0.00 | 0.00 | 0.00 | 63 | 1007.5 |
| 20260505005945 | 78 | 144 | 2.0 | 5.0 | 0.00 | 0.00 | 0.00 | 62 | 1007.4 |
| 20260505005442 | 78 | 169 | 2.0 | 7.0 | 0.00 | 0.00 | 0.00 | 61 | 1007.3 |
| 20260505004940 | 78 | 147 | 7.0 | 12.0 | 0.00 | 0.00 | 0.00 | 61 | 1007.3 |
| 20260505004436 | 78 | 137 | 3.0 | 5.0 | 0.00 | 0.00 | 0.00 | 61 | 1007.4 |
| 20260505003933 | 78 | 146 | 7.0 | 8.0 | 0.00 | 0.00 | 0.00 | 60 | 1007.1 |
| 20260505003431 | 79 | 187 | 3.0 | 10.0 | 0.00 | 0.00 | 0.00 | 60 | 1007.3 |
| 20260505002927 | 79 | 159 | 4.0 | 8.0 | 0.00 | 0.00 | 0.00 | 60 | 1007.3 |
| 20260505002423 | 79 | 147 | 4.0 | 5.0 | 0.00 | 0.00 | 0.00 | 61 | 1007.1 |
| 20260505001922 | 79 | 161 | 2.0 | 5.0 | 0.00 | 0.00 | 0.00 | 61 | 1007.2 |
| 20260505001419 | 79 | 179 | 2.0 | 7.0 | 0.00 | 0.00 | 0.00 | 61 | 1007.2 |
| 20260505000916 | 79 | 143 | 6.0 | 8.0 | 0.00 | 0.00 | 0.00 | 60 | 1007.0 |
| 20260505000414 | 79 | 153 | 2.0 | 4.0 | 0.00 | 0.00 | 0.00 | 60 | 1007.2 |
| 20260504235910 | 79 | 178 | 4.0 | 9.0 | 0.00 | 0.00 | 0.00 | 60 | 1007.0 |
| 20260504235408 | 80 | 156 | 6.0 | 8.0 | 0.00 | 0.00 | 0.00 | 59 | 1007.3 |
| 20260504234903 | 80 | 142 | 3.0 | 4.0 | 0.00 | 0.00 | 0.00 | 61 | 1007.2 |
| 20260504234401 | 80 | 135 | 6.0 | 6.0 | 0.00 | 0.00 | 0.00 | 60 | 1007.1 |
| 20260504233857 | 80 | 160 | 3.0 | 6.0 | 0.00 | 0.00 | 0.00 | 60 | 1007.4 |
| 20260504233353 | 80 | 166 | 5.0 | 9.0 | 0.00 | 0.00 | 0.00 | 59 | 1007.5 |
| 20260504232850 | 80 | 170 | 3.0 | 6.0 | 0.00 | 0.00 | 0.00 | 59 | 1007.4 |
| 20260504232347 | 80 | 149 | 6.0 | 7.0 | 0.00 | 0.00 | 0.00 | 58 | 1007.7 |
| 20260504231844 | 81 | 109 | 3.0 | 6.0 | 0.00 | 0.00 | 0.00 | 58 | 1007.6 |
| 20260504231341 | 81 | 164 | 4.0 | 4.0 | 0.00 | 0.00 | 0.00 | 58 | 1007.3 |
| 20260504230837 | 81 | 156 | 2.0 | 10.0 | 0.00 | 0.00 | 0.00 | 58 | 1007.6 |
| 20260504230335 | 81 | 146 | 6.0 | 7.0 | 0.00 | 0.00 | 0.00 | 57 | 1007.7 |